Location: Mountain Grove
(34.0887°N, 86.6172°W)
Time: 21:43:19
(UTC+00:00)

SL-16 R/B - Pass Details

Date: 14 July 2020
Orbit: 839 x 850 km, 71.0° (Epoch: 08 August)

Event Time Altitude Azimuth Distance (km) Brightness Sun altitude
Exits shadow 03:51:41 24° 233° (SW) 1,676 3.6 -27.3°
Maximum altitude 03:54:48 48° 295° (WNW) 1,101 3.0 -27.7°
Drops below altitude 10° 04:00:17 10° 9° (N) 2,475 5.2 -28.2°
Sets 04:02:50 0° 15° (NNE) 3,415 6.0 -28.5°
